Theta_e
316 316 316 316 316 316 316 316 317 318 320 320 319 319 319 319 319 316 310 318 320 327 327 316 315 313 311 307 308 306 304 302 303 302 305 307 306 309 309 309 309 310 310 313 315
316 316 316 316 316 316 316 317 318 319 320 320 319 319 319 319 315 312 325 328 328 329 314 313 311 311 308 306 306 304 300 301 304 305 304 305 306 307 307 307 308 308 310 311 318
315 316 316 316 315 315 316 317 319 319 320 320 319 319 319 318 312 309 332 330 328 325 315 315 314 309 306 306 304 302 300 302 304 306 306 305 305 307 306 306 308 308 310 310 311
314 315 315 315 315 316 317 318 319 319 319 320 319 319 319 315 299 312 335 330 329 318 314 312 309 305 303 303 303 301 302 303 305 305 305 305 306 305 306 308 309 309 309 310 311
314 314 315 315 316 316 318 318 318 317 317 318 318 319 317 306 304 316 336 332 321 315 311 307 305 304 302 302 302 301 302 303 304 304 305 304 305 305 306 308 309 309 310 310 311
313 313 314 315 316 316 317 317 317 317 317 317 318 319 313 302 312 321 318 318 313 311 309 308 306 305 303 301 302 302 302 303 302 303 303 302 303 303 305 307 308 309 310 311 310
313 313 313 314 315 316 317 317 316 316 317 318 318 317 310 306 312 313 313 312 312 310 308 308 308 306 304 301 303 302 301 302 302 303 302 303 300 301 305 309 308 310 311 311 311
312 312 313 314 315 316 317 316 316 316 317 319 320 316 305 313 315 311 312 310 310 312 310 310 309 305 303 304 301 300 299 297 301 304 302 302 298 302 305 306 307 309 309 310 313
312 312 313 314 315 316 315 314 315 317 320 321 316 313 304 317 310 311 312 308 309 310 310 309 308 303 303 300 298 298 296 295 297 302 302 302 300 304 307 306 307 309 309 309 310
312 313 312 313 315 315 315 315 318 319 317 317 313 305 308 305 309 310 312 310 307 307 306 305 303 302 301 300 292 294 294 295 295 300 302 299 300 303 305 307 307 308 309 308 308
312 312 313 314 314 313 312 313 309 308 309 305 305 304 304 307 310 308 310 308 307 306 300 301 300 298 297 299 297 296 295 295 297 300 300 299 299 301 304 307 307 308 307 308 313
311 312 313 314 314 313 309 309 308 308 303 306 306 307 308 307 303 306 310 304 303 299 300 300 297 299 299 298 297 297 296 296 298 299 299 298 298 301 305 305 306 307 310 312 314
311 312 312 313 313 312 311 309 312 309 303 305 307 305 304 306 302 304 307 304 302 300 299 298 299 300 300 298 297 297 296 295 295 298 298 297 295 299 304 306 307 308 310 311 314
311 311 312 312 312 311 310 312 309 311 300 300 301 303 305 305 302 307 308 305 303 300 299 298 301 300 300 297 298 295 298 297 296 296 292 297 288 296 302 303 305 307 309 310 313
310 312 312 311 312 310 312 312 311 313 287 300 301 308 304 302 303 304 309 307 301 300 300 296 299 299 298 297 299 296 299 297 296 295 293 292 290 295 298 301 303 306 307 309 312
310 311 311 310 312 311 311 311 315 299 286 296 301 300 300 301 301 303 305 309 306 301 300 298 302 300 300 300 299 299 298 294 295 294 288 290 291 293 297 301 304 307 308 308 309
309 310 311 310 309 311 311 312 298 290 298 295 296 299 298 298 299 301 301 300 298 294 294 296 297 301 301 298 300 299 296 288 286 287 287 292 291 294 300 302 306 307 308 309 309
308 308 311 314 312 312 313 304 292 294 294 299 299 299 297 299 299 299 298 297 300 297 294 291 290 297 300 298 295 295 295 288 281 283 286 292 289 295 302 304 306 309 310 309 309
307 317 312 312 312 314 307 295 294 295 298 297 298 295 296 298 299 298 297 296 297 298 294 292 291 297 298 299 298 295 293 295 291 290 288 291 294 299 303 304 306 306 307 308 309
313 312 309 310 314 311 303 294 297 299 300 299 293 296 293 295 295 296 296 298 297 299 300 295 291 296 297 299 298 297 298 291 293 284 282 287 289 290 297 300 305 306 307 309 308
311 307 311 309 313 308 298 297 299 302 302 299 295 295 295 294 296 295 295 299 300 300 301 297 294 293 296 295 294 295 293 293 293 291 285 283 287 299 298 300 301 303 307 307 308
307 302 312 310 303 297 297 297 298 301 303 301 301 298 296 296 295 295 295 298 302 301 295 298 295 290 293 299 298 296 294 294 289 286 289 288 288 300 301 301 301 301 303 304 305
303 303 310 311 297 297 299 298 299 299 299 299 298 299 299 297 293 296 297 301 301 299 296 298 294 288 290 293 296 294 294 294 293 292 288 286 288 301 301 299 302 302 303 304 304
301 297 300 302 299 298 296 296 296 299 297 299 298 299 297 296 297 295 295 299 301 300 304 301 295 291 286 288 293 290 292 294 293 287 287 288 289 294 297 298 300 301 301 302 302
297 294 295 294 297 295 296 294 293 294 298 299 296 296 294 291 293 293 296 297 298 300 299 299 289 291 291 292 292 291 291 292 290 291 287 289 289 294 297 298 299 300 300 300 299
297 296 296 295 294 295 294 293 293 294 296 294 295 295 295 293 294 292 294 295 293 297 296 296 289 290 289 292 292 289 292 292 291 290 291 292 291 297 298 299 298 299 300 299 300
298 298 296 292 294 294 294 293 293 295 297 297 296 296 295 296 298 300 299 299 298 294 292 292 291 288 284 289 288 283 288 290 291 293 293 287 292 296 295 295 295 297 299 298 300
Wind_Speed
15 14 14 13 12 11 10 10 9 9 9 9 8 7 8 9 9 2 3 1 2 2 2 1 3 3 3 3 2 4 1 4 4 6 3 1 3 2 2 1 3 3 2 2 4
16 15 14 13 12 11 10 10 10 9 9 8 7 7 6 7 2 3 2 4 3 2 2 3 3 2 4 2 2 3 4 7 3 3 2 2 2 2 2 3 1 1 2 2 1
16 15 14 13 12 11 11 10 9 8 7 7 5 6 6 5 2 3 4 6 4 2 3 3 4 2 3 2 2 4 3 4 3 4 3 3 4 3 2 5 5 3 5 1 1
18 16 14 13 12 11 11 10 8 7 5 5 5 4 5 2 3 2 7 7 4 1 2 4 2 3 3 4 3 4 4 5 2 4 4 4 2 4 6 4 3 1 4 5 4
19 17 16 14 13 12 10 9 8 6 4 3 4 4 3 1 4 1 8 6 2 0 3 3 4 2 4 3 3 3 1 2 1 6 8 3 7 4 7 5 7 6 3 4 8
19 18 17 15 13 12 11 9 7 5 4 3 3 1 2 9 1 6 6 3 1 1 3 3 3 2 4 2 0 0 4 6 1 2 3 4 4 3 4 7 5 6 7 6 5
20 19 17 15 14 12 11 9 7 4 4 2 3 2 2 5 2 6 5 1 1 1 2 2 4 1 2 3 2 1 4 1 5 5 2 4 5 6 3 8 5 6 5 6 4
20 19 18 16 14 13 11 9 6 3 3 3 3 3 1 1 2 3 3 1 2 2 1 4 4 6 2 2 2 1 1 5 3 7 2 5 2 3 6 9 10 7 6 7 8
20 19 18 16 14 14 12 8 4 3 1 1 1 2 3 4 1 2 0 2 2 3 6 5 3 3 2 3 3 2 2 2 2 4 5 3 4 3 11 9 11 10 9 7 10
20 18 17 15 13 13 10 4 7 6 2 3 2 2 2 2 2 1 1 3 4 3 2 3 4 1 2 4 4 5 3 2 2 3 5 4 8 10 7 7 8 10 10 7 5
22 19 16 14 12 8 3 2 1 1 2 2 2 0 3 3 1 3 2 3 2 5 2 3 2 1 1 1 1 3 2 1 2 1 10 5 10 10 5 5 7 8 7 4 6
23 20 17 14 10 5 2 4 3 2 4 2 2 4 4 1 2 3 1 2 2 4 0 2 4 3 2 4 2 2 2 3 2 3 6 8 16 5 4 4 6 4 7 8 9
22 20 18 14 9 0 4 3 5 4 1 4 2 2 2 2 2 4 2 2 4 4 4 2 5 3 2 4 2 1 1 1 4 5 2 9 5 1 3 4 4 5 5 6 8
22 19 17 19 2 1 2 6 3 5 2 3 2 2 1 1 3 2 2 1 2 3 2 4 3 4 3 3 1 2 2 1 6 8 7 4 6 4 4 3 3 4 5 6 6
23 19 14 10 2 2 5 7 2 2 3 1 2 2 1 2 0 5 4 3 4 3 2 4 3 4 4 3 1 2 2 3 4 5 4 2 6 2 2 8 6 5 5 6 5
23 18 12 2 1 2 8 3 1 1 3 2 3 3 1 4 3 1 3 6 2 3 4 4 2 3 3 3 4 2 2 2 2 1 5 2 4 3 5 9 10 8 7 6 6
24 15 3 0 3 7 5 1 1 4 2 5 3 4 4 5 4 5 4 7 4 2 6 4 3 1 4 1 2 3 4 4 3 3 2 2 5 9 6 6 11 12 9 8 5
25 8 0 1 6 4 1 2 5 1 3 2 3 6 5 7 5 6 3 3 7 4 3 3 4 4 6 3 4 3 3 2 5 4 7 3 8 1 2 6 6 7 10 8 6
16 1 2 7 5 1 2 4 2 1 1 3 1 4 4 4 3 3 5 3 4 5 3 3 1 2 1 2 4 2 3 4 5 1 5 5 4 10 4 5 2 6 9 8 5
2 1 2 12 3 2 4 3 1 1 1 2 3 3 3 6 3 3 2 4 2 3 2 2 5 2 2 2 4 3 4 3 1 5 7 6 8 9 5 8 5 8 9 9 8
2 2 3 9 0 5 4 2 1 4 1 3 2 3 3 3 3 3 3 4 6 4 6 2 2 1 3 2 11 2 3 2 3 4 5 8 7 2 7 8 11 13 9 10 12
2 2 5 5 4 2 2 2 4 3 7 4 4 4 2 2 2 2 1 3 5 3 3 3 1 5 9 8 5 6 5 5 4 4 3 4 13 8 14 5 15 19 20 21 20
3 3 4 4 3 3 2 3 6 5 5 3 3 3 1 2 1 0 1 5 8 4 3 2 2 5 4 4 2 1 2 3 2 1 11 14 15 5 12 22 18 17 18 17 18
2 2 5 6 3 3 2 3 2 6 4 4 3 3 2 1 2 1 1 1 7 3 4 4 3 9 10 12 7 12 13 15 13 5 17 21 29 25 21 19 11 13 17 19 20
5 3 1 4 5 5 1 2 2 4 5 8 3 4 2 1 2 1 1 4 4 7 3 2 6 6 11 13 15 16 19 19 17 18 17 26 24 23 22 16 14 16 16 18 19
3 2 1 2 2 1 4 3 2 2 4 3 3 2 1 3 4 2 1 2 4 3 2 2 4 3 10 13 10 13 17 17 20 21 19 19 23 13 18 16 19 19 22 25 23
2 1 2 2 2 1 2 1 2 1 2 3 1 1 3 1 3 6 6 6 9 7 4 3 2 1 4 4 12 15 8 4 6 5 8 14 19 17 17 17 19 24 23 25 24
Wind_Direction
353 348 345 341 336 330 323 316 305 288 275 280 292 308 328 329 307 227 235 146 167 193 214 111 83 82 46 31 76 224 123 217 227 196 149 42 18 44 321 320 33 66 95 10 29
351 347 343 338 335 329 321 318 308 293 281 285 297 308 324 336 288 253 238 177 195 283 107 143 102 116 102 96 49 70 232 214 246 237 111 55 272 313 264 350 323 188 132 42 76
349 346 342 339 333 328 322 318 313 308 287 280 285 304 314 315 233 21 151 162 154 63 83 108 114 85 84 114 98 135 198 214 212 235 258 295 248 210 220 260 228 254 312 75 206
347 345 342 338 332 328 321 320 321 320 296 282 279 280 304 258 90 14 137 142 131 54 120 122 98 103 119 146 121 206 190 203 240 283 264 236 225 214 213 258 10 235 285 298 269
345 343 341 336 330 327 325 324 324 320 310 262 276 293 262 140 75 112 138 137 119 42 80 100 72 116 127 126 142 202 276 193 351 270 243 276 233 245 232 342 315 311 296 288 276
344 341 338 335 330 328 325 320 318 310 301 235 230 263 263 93 60 159 144 155 186 105 80 51 89 104 101 98 235 53 282 310 8 282 277 258 255 218 73 350 350 6 333 334 330
344 340 336 334 330 327 322 314 309 292 278 237 236 245 245 91 113 179 182 250 149 165 82 96 119 58 135 125 17 315 294 304 14 355 53 229 228 228 44 9 337 317 334 335 341
345 340 336 332 329 325 318 307 292 249 212 203 223 243 70 190 196 161 177 125 142 212 5 105 90 93 17 109 64 111 215 232 34 12 101 239 185 173 20 335 309 315 318 314 318
345 340 337 333 331 326 316 292 236 182 182 170 267 326 101 325 40 31 237 44 97 83 50 87 64 56 130 163 171 52 224 208 190 48 331 311 287 122 357 340 316 320 316 326 317
345 340 337 334 335 332 349 154 139 137 178 207 244 194 16 20 303 3 73 72 74 94 96 44 55 100 116 209 223 162 161 141 309 14 330 282 272 321 351 334 322 320 321 323 327
346 342 336 334 334 328 325 163 323 119 53 45 326 317 292 299 322 50 13 91 56 64 91 33 166 55 36 187 131 117 109 359 265 347 321 298 284 312 329 320 347 356 352 43 44
345 342 338 334 331 345 261 68 76 51 331 29 268 276 245 281 10 27 113 99 84 84 125 154 67 343 214 153 132 74 15 338 260 291 306 319 301 316 357 12 351 18 80 88 93
344 341 338 333 320 250 69 66 318 194 17 319 259 300 340 171 58 22 49 92 86 65 39 65 12 82 144 125 123 88 280 227 295 312 220 305 260 207 111 74 75 71 78 78 81
344 342 340 328 98 342 63 340 317 201 80 0 29 45 60 90 62 3 53 86 74 60 110 77 6 60 89 111 218 307 187 276 305 320 315 352 292 232 199 148 115 102 94 91 91
344 340 342 356 115 63 337 334 164 226 94 359 32 342 38 46 82 40 10 40 62 47 321 45 26 27 65 27 301 54 7 355 325 292 298 182 251 107 194 214 184 163 143 131 118
342 340 330 69 19 21 327 313 217 198 88 25 0 8 65 24 52 16 50 47 57 82 41 24 306 23 21 63 44 86 243 66 102 216 247 21 274 266 204 228 200 194 183 165 151
339 335 353 321 338 329 315 64 157 65 321 6 351 355 88 15 51 19 50 37 28 8 23 352 46 24 18 139 128 9 331 303 247 220 335 158 262 266 265 262 233 202 190 183 185
334 323 124 57 318 313 31 97 73 33 30 1 2 52 68 2 46 23 74 76 46 47 86 19 164 14 356 30 347 8 316 299 294 286 312 166 247 273 330 304 251 234 203 197 207
321 33 51 347 330 324 92 60 88 135 327 359 91 57 40 24 30 71 48 51 30 10 41 349 294 340 57 336 313 84 262 13 278 234 264 253 269 265 308 251 197 203 205 208 207
6 32 23 337 341 66 78 102 72 255 87 62 78 14 47 8 30 33 57 4 80 35 317 126 288 39 325 220 86 332 123 237 206 277 270 242 272 254 355 347 291 265 246 226 216
17 75 11 344 5 53 81 84 21 34 72 48 103 89 66 18 3 21 47 55 7 36 51 56 261 178 291 304 313 280 226 119 296 245 272 297 260 145 323 3 1 346 321 302 295
357 71 0 333 49 28 73 358 345 342 27 82 90 92 96 55 28 43 75 54 12 16 29 36 217 268 291 296 297 255 268 232 209 208 236 293 258 274 281 30 333 323 324 321 308
39 329 348 330 81 54 16 57 43 28 34 47 88 43 47 80 95 74 65 160 28 3 360 175 223 300 279 150 158 85 132 98 43 292 253 264 273 212 293 319 333 327 332 335 340
7 45 2 47 31 59 42 20 77 32 62 44 89 79 82 83 38 310 332 287 330 343 12 184 234 245 258 291 304 279 270 264 257 247 276 260 281 292 307 316 312 315 318 318 313
14 67 10 16 38 53 41 3 33 19 13 28 84 66 91 115 307 263 261 319 326 1 83 13 274 263 273 277 270 269 269 266 260 258 255 281 287 299 309 316 301 307 307 311 306
47 1 56 67 306 54 5 41 45 30 360 19 83 41 161 211 206 284 279 261 273 45 35 354 264 306 283 277 285 267 266 267 272 276 274 277 280 308 318 308 306 315 310 305 300
31 95 286 356 54 168 58 17 42 298 110 61 66 174 222 208 299 289 281 271 272 282 263 236 237 275 275 338 311 280 276 248 273 289 288 284 296 317 311 317 311 311 304 299 300